Location: Newark
(44.9333°N, 0.5667°E)
Time: 14:10:05
(UTC+00:00)

N. Korean satellite - Pass Details

Date: 19 December 2019
Orbit: 454 x 508 km, 97.2° (Epoch: 17 January)

Event Time Altitude Azimuth Distance (km) Brightness Sun altitude
Rises 05:51:48 0° 12° (NNE) 2,513 10.1 -16.8°
Reaches altitude 10° 05:53:53 10° 13° (NNE) 1,624 9.2 -16.4°
Maximum altitude 05:57:22 87° 101° (ESE) 466 6.4 -15.8°
Drops below altitude 10° 06:00:46 10° 192° (SSW) 1,591 9.2 -15.2°
Sets 06:02:47 0° 193° (SSW) 2,457 10.2 -14.9°
